Regional Weather Roundup
Issued by NWS Northern Indiana

Home | Current Version | Previous Version | Text Only | Print | Product List | Glossary Off
Versions: 1 2 3 4 5 6 7 8 9 10 11 12 13 14 15 16 17 18 19 20 21 22 23 24 25 26 27 28 29 30 31 32 33 34 35 36 37 38 39 40 41 42 43 44 45 46 47 48 49 50

000
ASUS43 KIWX 290410
RWRIWX

KIWX WEATHER ROUNDUP
NATIONAL WEATHER SERVICE NORTHERN INDIANA
1200 AM EDT TUE JUL 29 2014

NOTE: "FAIR" INDICATES FEW OR NO CLOUDS BELOW 12,000 FEET WITH NO
SIGNIFICANT WEATHER AND/OR OBSTRUCTIONS TO VISIBILITY.

* THESE STATIONS ARE NOT UNDER NWS QUALITY CONTROL. THEY ALSO MAY NOT
  REPORT WEATHER SUCH AS PRECIPITATION OR FOG.

INZ001>027-290500-
NORTHERN INDIANA

CITY           SKY/WX    TMP DP  RH WIND       PRES   REMARKS
GARY*          CLOUDY    61  57  88 CALM      30.07F
VALPARAISO     MOCLDY    55  51  86 W3        30.07F
MICHIGAN CITY* MOCLDY    54  52  94 CALM      30.07S
LAPORTE*       MOCLDY    55  50  84 CALM      30.07S
KNOX*          PTCLDY    51  47  86 SW3       30.06F
SOUTH BEND     PTCLDY    55  47  74 N7        30.05F
GOSHEN         PTCLDY    54  49  83 CALM      30.04F
MONTICELLO*    CLEAR     52  50  93 NW3       30.06F
LOGANSPORT*    PTCLDY    52  46  82 CALM      30.07F
ROCHESTER*     CLEAR     54  48  82 CALM      30.06S
WARSAW*        CLEAR     50  48  93 CALM      30.05F
ANGOLA*        CLEAR     54  52  94 N3        30.04S
FORT WAYNE     PTCLDY    55  49  80 NW6       30.04S
HUNTINGTON*    CLEAR     53  49  86 NW5       30.04S
PERU/GRISSOM   CLEAR     55  51  86 NW7       30.06S
MARION*        CLEAR     51  47  89 NW5       30.05F

$$
INZ028>050-290500-
CENTRAL INDIANA

CITY           SKY/WX    TMP DP  RH WIND       PRES   REMARKS
LAFAYETTE      CLEAR     53  49  86 NW5       30.07F
KOKOMO*        CLEAR     54  48  82 NW7       30.06S
MUNCIE*        CLEAR     52  47  83 NW5       30.04F
INDIANAPOLIS   CLEAR     59  47  64 N12G21    30.03F

$$
MIZ043>046-050>051-056>058-064>065-071>073-077>080-290500-
SOUTHWEST LOWER MICHIGAN

CITY           SKY/WX    TMP DP  RH WIND       PRES   REMARKS
BATTLE CREEK   CLEAR     54  50  86 CALM      30.04F
BENTON HARBOR  PTCLDY    52  49  89 CALM      30.05S
COLDWATER*     CLOUDY    58  52  80 NW3       30.04S
HILLSDALE*     MOCLDY    54  52  92 CALM      30.03F
HOLLAND        CLEAR     53  49  86 CALM      30.05S
GRAND RAPIDS   PTCLDY    58  48  69 CALM      30.03F
KALAMAZOO      CLEAR     54  48  80 CALM      30.04F
STURGIS*       CLEAR     52  48  87 CALM      30.04S
THREE RIVERS*  FAIR      53  50  92 CALM      30.05S

$$
OHZ001>008-015>018-024>025-290500-
NORTHWEST OHIO

CITY           SKY/WX    TMP DP  RH WIND       PRES   REMARKS
WAUSEON*       MOCLDY    57  50  77 NE6       30.02S
DEFIANCE       PTCLDY    58  53  84 N8        30.01F
FINDLAY        MOCLDY    63  51  65 N9        29.98S
TOLEDO EXPRESS PTCLDY    58  49  72 N8        30.01S
TOLEDO METCALF PTCLDY    60  49  66 N9        30.01S
LIMA           CLOUDY    58  52  80 NW10      30.00F

$$
&&



USA.gov is the U.S. government's official web portal to all federal, state and local government web resources and services.